This is the latest recevied weather packets stored in our database for station/object W0AKY-13. If no packets are shown the sender has not sent any weather packets the latest 10 day(s).
| Time | Temp. | Humidity | Pressure | Rain* | Wind** | Luminosity | Snow |
|---|---|---|---|---|---|---|---|
| 1788661822 | 26.67° C | 87% | 1015.1 hPa | 0 mm | - | 0 W/m² | - |
| 1788661518 | 26.67° C | 86% | 1015.2 hPa | 0 mm | - | 0 W/m² | - |
| 1788661213 | 26.67° C | 86% | 1015 hPa | 0 mm | - | 0 W/m² | - |
| 1788660908 | 27.22° C | 85% | 1014.9 hPa | 0 mm | - | 0 W/m² | - |
| 1788660603 | 27.22° C | 84% | 1014.8 hPa | 0 mm | - | 0 W/m² | - |
| 1788660302 | 27.22° C | 83% | 1014.5 hPa | 0 mm | - | 0 W/m² | - |
| 1788660001 | 27.78° C | 83% | 1014.4 hPa | 0 mm | - | 0 W/m² | - |
| 1788659701 | 27.78° C | 83% | 1014.4 hPa | 0 mm | - | 0 W/m² | - |
| 1788659401 | 27.78° C | 82% | 1014.4 hPa | 0 mm | - | 0 W/m² | - |
| 1788659095 | 28.33° C | 81% | 1014.3 hPa | 0 mm | - | 0 W/m² | - |
| 1788658791 | 27.78° C | 80% | 1014.3 hPa | 0 mm | - | 0 W/m² | - |
| 1788658486 | 27.78° C | 81% | 1014.1 hPa | 0 mm | - | 0 W/m² | - |
| 1788658183 | 27.78° C | 82% | 1014.1 hPa | 0 mm | - | 0 W/m² | - |
| 1788657883 | 27.78° C | 81% | 1013.8 hPa | 0 mm | - | 0 W/m² | - |
| 1788657582 | 28.33° C | 79% | 1014.1 hPa | 0 mm | - | 0 W/m² | - |
| 1788657277 | 28.89° C | 77% | 1014.1 hPa | 0 mm | - | 0 W/m² | - |
| 1788656973 | 28.89° C | 76% | 1014.1 hPa | 0 mm | - | 0 W/m² | - |
| 1788656668 | 29.44° C | 74% | 1014 hPa | 0 mm | - | 0 W/m² | - |
| 1788656364 | 30° C | 73% | 1014.1 hPa | 0 mm | - | 0 W/m² | - |
| 1788656063 | 30° C | 71% | 1014 hPa | 0 mm | - | 1 W/m² | - |
| 1788655762 | 30.56° C | 70% | 1014 hPa | 0 mm | - | 2 W/m² | - |
| 1788655457 | 31.11° C | 68% | 1014 hPa | 0 mm | - | 3 W/m² | - |
| 1788655153 | 31.11° C | 67% | 1014 hPa | 0 mm | - | 4 W/m² | - |
| 1788654848 | 31.67° C | 64% | 1014.3 hPa | 0 mm | - | 6 W/m² | - |
| 1788654555 | 31.67° C | 62% | 1014.2 hPa | 0 mm | - | 8 W/m² | - |
* Rain latest hour (hover to see other rain measurements)
** Current wind speed in m/s (hover to see current wind gust speed)